| time (UTC) | temp C | wind direction | speed KPH | gust KPH | rain 1hr cm | rain 24hr cm | rain mn cm | humidity % | barometer mb |
| 20260510043100 | 23 | 167 | 0.0 | 0.0 | 0.00 | 0.00 | 0.00 | 82 | 1009.0 |
| 20260510041635 | 23 | 167 | 0.0 | 0.0 | 0.00 | 0.00 | 0.00 | 81 | 1009.1 |
| 20260510040056 | 23 | 97 | 0.0 | 0.0 | 0.00 | 0.00 | 0.00 | 80 | 1009.1 |
| 20260510034602 | 23 | 97 | 0.0 | 0.0 | 0.00 | 0.00 | 0.00 | 78 | 1008.8 |
| 20260510033116 | 24 | 97 | 0.0 | 0.0 | 0.00 | 0.00 | 0.00 | 79 | 1008.7 |
| 20260510031557 | 24 | 121 | 0.0 | 1.6 | 0.00 | 0.00 | 0.00 | 78 | 1008.6 |
| 20260510030055 | 25 | 121 | 0.0 | 1.6 | 0.00 | 0.00 | 0.00 | 76 | 1008.5 |
| 20260510024609 | 25 | 121 | 0.0 | 0.0 | 0.00 | 0.00 | 0.00 | 74 | 1008.1 |
| 20260510023059 | 26 | 121 | 0.0 | 0.0 | 0.00 | 0.00 | 0.00 | 71 | 1007.9 |
| 20260510021554 | 26 | 121 | 0.0 | 0.0 | 0.00 | 0.00 | 0.00 | 70 | 1007.7 |
| 20260510020053 | 27 | 121 | 0.0 | 3.2 | 0.00 | 0.00 | 0.00 | 70 | 1007.5 |
| 20260510014612 | 27 | 107 | 0.0 | 4.8 | 0.00 | 0.00 | 0.00 | 69 | 1007.3 |
| 20260510013102 | 27 | 141 | 1.6 | 6.4 | 0.00 | 0.00 | 0.00 | 68 | 1007.0 |
| 20260510011552 | 28 | 110 | 1.6 | 9.7 | 0.00 | 0.00 | 0.00 | 67 | 1007.0 |
| 20260510010051 | 28 | 111 | 3.2 | 6.4 | 0.00 | 0.00 | 0.00 | 66 | 1006.9 |
| 20260510004553 | 29 | 98 | 1.6 | 6.4 | 0.00 | 0.00 | 0.00 | 64 | 1006.8 |
| 20260510003050 | 30 | 94 | 3.2 | 11.3 | 0.00 | 0.00 | 0.00 | 61 | 1006.6 |
| 20260510001549 | 31 | 85 | 4.8 | 12.9 | 0.00 | 0.00 | 0.00 | 58 | 1006.6 |
| 20260510000048 | 32 | 119 | 1.6 | 8.0 | 0.00 | 0.00 | 0.00 | 51 | 1006.4 |
| 20260509234548 | 32 | 256 | 0.0 | 1.6 | 0.00 | 0.00 | 0.00 | 46 | 1006.3 |
| 20260509233051 | 32 | 256 | 0.0 | 3.2 | 0.00 | 0.00 | 0.00 | 45 | 1006.2 |
| 20260509231557 | 32 | 224 | 0.0 | 6.4 | 0.00 | 0.00 | 0.00 | 46 | 1006.2 |
| 20260509230046 | 32 | 261 | 4.8 | 16.1 | 0.00 | 0.00 | 0.00 | 47 | 1006.1 |
| 20260509224545 | 32 | 92 | 3.2 | 9.7 | 0.00 | 0.00 | 0.00 | 47 | 1006.2 |
| 20260509223050 | 32 | 99 | 1.6 | 4.8 | 0.00 | 0.00 | 0.00 | 47 | 1006.3 |
| 20260509221545 | 32 | 121 | 1.6 | 8.0 | 0.00 | 0.00 | 0.00 | 48 | 1006.1 |
| 20260509220045 | 32 | 99 | 0.0 | 8.0 | 0.00 | 0.00 | 0.00 | 48 | 1006.3 |
| 20260509214540 | 33 | 128 | 0.0 | 8.0 | 0.00 | 0.00 | 0.00 | 47 | 1006.4 |
| 20260509213036 | 33 | 135 | 1.6 | 6.4 | 0.00 | 0.00 | 0.00 | 45 | 1006.5 |
| 20260509211533 | 32 | 325 | 0.0 | 4.8 | 0.00 | 0.00 | 0.00 | 44 | 1006.8 |
| 20260509210041 | 32 | 321 | 0.0 | 4.8 | 0.00 | 0.00 | 0.00 | 45 | 1007.0 |
| 20260509204525 | 32 | 294 | 0.0 | 4.8 | 0.00 | 0.00 | 0.00 | 46 | 1007.3 |
| 20260509203024 | 32 | 144 | 1.6 | 6.4 | 0.00 | 0.00 | 0.00 | 47 | 1007.6 |
| 20260509201525 | 31 | 172 | 4.8 | 11.3 | 0.00 | 0.00 | 0.00 | 48 | 1007.9 |
| 20260509200016 | 31 | 109 | 1.6 | 9.7 | 0.00 | 0.00 | 0.00 | 50 | 1008.1 |
| 20260509194513 | 30 | 236 | 0.0 | 6.4 | 0.00 | 0.00 | 0.00 | 51 | 1008.1 |
| 20260509193009 | 30 | 44 | 0.0 | 6.4 | 0.00 | 0.00 | 0.00 | 58 | 1008.2 |
| 20260509191508 | 29 | 27 | 0.0 | 9.7 | 0.00 | 0.00 | 0.00 | 61 | 1008.4 |
| 20260509190006 | 28 | 339 | 1.6 | 6.4 | 0.00 | 0.00 | 0.00 | 68 | 1008.8 |
| 20260509184514 | 28 | 262 | 0.0 | 6.4 | 0.00 | 0.00 | 0.00 | 75 | 1008.9 |
| 20260509183004 | 27 | 313 | 0.0 | 4.8 | 0.00 | 0.00 | 0.00 | 78 | 1009.2 |
| 20260509181503 | 26 | 73 | 0.0 | 3.2 | 0.00 | 0.00 | 0.00 | 79 | 1009.5 |
| 20260509180002 | 26 | 116 | 0.0 | 4.8 | 0.00 | 0.00 | 0.00 | 78 | 1009.7 |
| 20260509174505 | 26 | 86 | 1.6 | 6.4 | 0.00 | 0.00 | 0.00 | 77 | 1009.6 |
| 20260509173002 | 26 | 35 | 0.0 | 4.8 | 0.00 | 0.00 | 0.00 | 84 | 1009.8 |
| 20260509171503 | 26 | 75 | 0.0 | 8.0 | 0.00 | 0.00 | 0.00 | 81 | 1010.1 |
| 20260509170122 | 26 | 94 | 1.6 | 6.4 | 0.00 | 0.00 | 0.00 | 77 | 1010.2 |
| 20260509164604 | 27 | 146 | 4.8 | 12.9 | 0.00 | 0.00 | 0.00 | 74 | 1009.9 |
| 20260509163059 | 28 | 134 | 1.6 | 16.1 | 0.00 | 0.00 | 0.00 | 71 | 1009.7 |
| 20260509161559 | 30 | 243 | 0.0 | 6.4 | 0.00 | 0.00 | 0.00 | 63 | 1009.9 |
| 20260509160059 | 30 | 137 | 0.0 | 6.4 | 0.00 | 0.00 | 0.00 | 64 | 1009.7 |
| 20260509154555 | 30 | 142 | 3.2 | 8.0 | 0.00 | 0.00 | 0.00 | 66 | 1009.5 |
| 20260509153052 | 28 | 123 | 1.6 | 6.4 | 0.00 | 0.00 | 0.00 | 71 | 1009.5 |
| 20260509151602 | 28 | 132 | 1.6 | 8.0 | 0.00 | 0.00 | 0.00 | 72 | 1009.3 |
| 20260509150048 | 27 | 221 | 3.2 | 12.9 | 0.00 | 0.00 | 0.00 | 74 | 1009.1 |
| 20260509144540 | 27 | 210 | 6.4 | 17.7 | 0.00 | 0.00 | 0.00 | 76 | 1008.8 |
| 20260509143037 | 26 | 178 | 3.2 | 14.5 | 0.00 | 0.00 | 0.00 | 81 | 1008.5 |
| 20260509141531 | 25 | 148 | 4.8 | 16.1 | 0.00 | 0.00 | 0.00 | 84 | 1008.4 |
| 20260509140026 | 24 | 131 | 3.2 | 11.3 | 0.00 | 0.00 | 0.00 | 89 | 1008.6 |
| 20260509134521 | 23 | 209 | 1.6 | 12.9 | 0.00 | 0.00 | 0.00 | 93 | 1008.9 |
| 20260509133017 | 22 | 126 | 1.6 | 6.4 | 0.00 | 0.00 | 0.00 | 95 | 1008.6 |
| 20260509131513 | 22 | 155 | 1.6 | 8.0 | 0.00 | 0.00 | 0.00 | 95 | 1008.3 |
| 20260509130034 | 21 | 220 | 1.6 | 4.8 | 0.00 | 0.00 | 0.00 | 95 | 1008.5 |
| 20260509124526 | 21 | 159 | 0.0 | 4.8 | 0.00 | 0.00 | 0.00 | 95 | 1008.6 |
| 20260509123011 | 21 | 246 | 3.2 | 8.0 | 0.00 | 0.00 | 0.00 | 95 | 1008.7 |
| 20260509121508 | 21 | 296 | 0.0 | 3.2 | 0.00 | 0.00 | 0.00 | 95 | 1009.2 |
| 20260509120013 | 21 | 129 | 0.0 | 0.0 | 0.00 | 0.00 | 0.00 | 95 | 1009.2 |
| 20260509114505 | 21 | 227 | 0.0 | 0.0 | 0.00 | 0.00 | 0.00 | 95 | 1009.5 |
| 20260509113005 | 21 | 323 | 0.0 | 0.0 | 0.00 | 0.00 | 0.00 | 95 | 1010.1 |
| 20260509111504 | 21 | 323 | 0.0 | 0.0 | 0.00 | 0.00 | 0.00 | 95 | 1010.2 |
| 20260509110004 | 21 | 323 | 0.0 | 0.0 | 0.00 | 0.00 | 0.00 | 95 | 1010.4 |
| 20260509104505 | 21 | 323 | 0.0 | 0.0 | 0.00 | 0.00 | 0.00 | 95 | 1010.6 |
| 20260509103001 | 21 | 360 | 0.0 | 0.0 | 0.00 | 0.00 | 0.00 | 94 | 1010.7 |
| 20260509101658 | 21 | 291 | 0.0 | 0.0 | 0.00 | 0.00 | 0.00 | 94 | 1010.4 |
| 20260509100056 | 21 | 291 | 0.0 | 3.2 | 0.00 | 0.00 | 0.00 | 94 | 1010.2 |
| 20260509094601 | 21 | 36 | 0.0 | 0.0 | 0.00 | 0.05 | 0.00 | 94 | 1009.8 |
| 20260509093058 | 21 | 311 | 0.0 | 0.0 | 0.00 | 0.05 | 0.00 | 94 | 1009.8 |
| 20260509091557 | 21 | 164 | 0.0 | 0.0 | 0.00 | 0.05 | 0.00 | 94 | 1009.0 |
| 20260509090057 | 21 | 164 | 0.0 | 0.0 | 0.00 | 0.05 | 0.00 | 93 | 1008.9 |
| 20260509084602 | 21 | 164 | 0.0 | 0.0 | 0.00 | 0.05 | 0.00 | 93 | 1009.0 |
| 20260509083052 | 22 | 164 | 0.0 | 0.0 | 0.00 | 0.05 | 0.00 | 92 | 1009.4 |
| 20260509081557 | 22 | 164 | 0.0 | 0.0 | 0.00 | 0.05 | 0.00 | 93 | 1009.3 |
| 20260509080057 | 22 | 164 | 0.0 | 0.0 | 0.00 | 0.05 | 0.00 | 92 | 1009.4 |
| 20260509074547 | 22 | 164 | 0.0 | 0.0 | 0.00 | 0.05 | 0.00 | 93 | 1009.8 |
| 20260509073046 | 22 | 164 | 0.0 | 0.0 | 0.00 | 0.05 | 0.00 | 93 | 1009.8 |
| 20260509071538 | 22 | 164 | 0.0 | 0.0 | 0.00 | 0.05 | 0.00 | 93 | 1010.1 |
| 20260509070033 | 22 | 187 | 0.0 | 0.0 | 0.00 | 0.05 | 0.00 | 93 | 1009.8 |
| 20260509064529 | 22 | 170 | 0.0 | 0.0 | 0.00 | 0.05 | 0.00 | 93 | 1009.9 |
| 20260509063033 | 22 | 150 | 0.0 | 4.8 | 0.00 | 0.05 | 0.00 | 93 | 1009.9 |
| 20260509061522 | 22 | 165 | 1.6 | 4.8 | 0.00 | 0.05 | 0.00 | 93 | 1009.8 |
| 20260509060017 | 22 | 111 | 3.2 | 4.8 | 0.00 | 0.05 | 0.00 | 93 | 1010.0 |
| 20260509054512 | 22 | 101 | 0.0 | 4.8 | 0.00 | 0.05 | 0.00 | 92 | 1009.6 |
| 20260509053012 | 22 | 119 | 1.6 | 4.8 | 0.00 | 0.05 | 0.00 | 92 | 1008.8 |
| 20260509051506 | 21 | 99 | 0.0 | 3.2 | 0.00 | 0.05 | 0.00 | 92 | 1008.6 |
| 20260509050100 | 22 | 65 | 1.6 | 4.8 | 0.00 | 0.05 | 0.00 | 91 | 1008.4 |
| 20260509050003 | 22 | 87 | 0.0 | 3.2 | 0.00 | 0.05 | 0.00 | 91 | 1008.4 |
| 20260509044616 | 22 | 118 | 0.0 | 4.8 | 0.00 | 0.05 | 0.05 | 91 | 1008.4 |